Location: UBC Liquid-Mirror Observatory
(49.2876°N, 122.5728°W)
Time: 04:35:47
(UTC-07:00)

KITSAT 1 - Visible Passes

Search period start: 19 April 2018 00:00
Search period end: 29 April 2018 00:00
Orbit: 1304 x 1327 km, 66.1° (Epoch: 18 April)

Date Brightness Start Highest point End Pass type
(mag) Time Alt. Az. Time Alt. Az. Time Alt. Az.
19 Apr 10.7 01:25:04 10° NW 01:32:31 41° WSW 01:32:33 41° WSW visible
19 Apr 11.4 21:49:42 10° NW 21:56:55 33° NNE 22:04:05 10° E visible
19 Apr 10.2 23:45:22 10° NW 23:53:35 80° NE 23:56:04 50° SE visible
20 Apr 11.2 01:41:33 10° NW 01:48:02 29° WSW 01:48:02 29° WSW visible
20 Apr 11.2 22:05:55 10° NW 22:13:29 39° NNE 22:19:37 15° E visible
21 Apr 10.1 00:01:30 10° NW 00:09:40 78° WSW 00:11:35 56° SSE visible
21 Apr 11.6 01:58:23 10° WNW 02:03:33 20° W 02:03:33 20° W visible
21 Apr 10.8 22:22:04 10° NW 22:29:57 48° NE 22:35:09 22° ESE visible
22 Apr 10.3 00:17:41 10° NW 00:25:37 58° WSW 00:27:07 51° SSW visible
22 Apr 12.0 02:16:06 10° WNW 02:19:05 13° W 02:19:05 13° W visible
22 Apr 11.6 20:42:16 10° NW 20:49:07 28° NNE 20:55:55 10° ENE visible
22 Apr 10.5 22:38:11 10° NW 22:46:17 61° NE 22:50:44 29° ESE visible
23 Apr 10.7 00:33:57 10° NW 00:41:27 42° WSW 00:42:42 40° SW visible
23 Apr 11.4 20:58:36 10° NW 21:05:47 32° NNE 21:12:56 10° E visible
23 Apr 10.2 22:54:17 10° NW 23:02:29 79° NE 23:06:19 36° SE visible
24 Apr 11.2 00:50:26 10° NW 00:57:10 30° WSW 00:58:18 29° WSW visible
24 Apr 11.1 21:14:50 10° NW 21:22:23 38° NNE 21:29:50 10° E visible
24 Apr 10.2 23:10:24 10° NW 23:18:35 80° WSW 23:21:57 40° SSE visible
25 Apr 11.6 01:07:13 10° WNW 01:12:46 21° WSW 01:13:55 20° WSW visible
25 Apr 10.8 21:30:59 10° NW 21:38:50 47° NE 21:45:38 14° ESE visible
25 Apr 10.4 23:26:35 10° NW 23:34:33 60° WSW 23:37:36 39° S visible
26 Apr 12.0 01:24:49 10° WNW 01:28:14 13° W 01:29:35 13° WSW visible
26 Apr 10.5 21:47:06 10° NW 21:55:11 60° NE 22:01:19 19° ESE visible
26 Apr 10.9 23:42:52 10° NW 23:50:23 43° WSW 23:53:18 32° SSW visible
27 Apr 10.3 22:03:12 10° NW 22:11:24 77° NE 22:17:02 22° SE visible
27 Apr 11.3 23:59:18 10° NW 00:06:07 31° WSW 00:09:01 25° SW visible
28 Apr 10.3 22:19:19 10° NW 22:27:30 82° WSW 22:32:48 25° SSE visible
